Torna al catalogo

SL-8 R/B

AttivoPO
NORAD 14547·ROCKET BODY·🇷🇺 Russia

Lanciato Dec 8, 1983 da Plesetsk Cosmodrome

Loading…

Prossimi Passaggi (prossime 24 ore)

TLE

AggiornatoSource: Space-Track

Epoca: Sep 14, 2026, 13:17 UTC

1 14547U 83120B   26257.55405687  .00000123  00000-0  10698-3 0  9990
2 14547  82.9272  97.5159 0047568 134.1652 226.3431 13.77414215904932

Traccia SL-8 R/B in tempo reale con AllMySat

Download on the App Store